When you browse on this site, cookies collect data to enhance your experience and personalize the content and advertising you see.
Visit our Privacy Policy to learn more. By continuing to use the site, you agree to this use of cookies and data.
  • In Schweiz
  • Länderverzeichnis
  • Für 7 Tage
  • Wassertemperatur
  • Wetterkarte
  • Widgets
  • user-avatar
    Anmelden

    Stündliche Wetter Borisovskie Vyselki

    Heute, 25 August, Sonntag

    Zeit Temperatur Niederschläge Wind Luftdruck Luftfeuchtigkeit
    00:00 +16°C° 0 mm 2 m/S 748 mmHg 71%
    01:00 +16°C° 0 mm 2 m/S 748 mmHg 75%
    02:00 +16°C° 0 mm 2 m/S 748 mmHg 78%
    03:00 +14°C° 0 mm 3 m/S 748 mmHg 81%
    04:00 +14°C° 0 mm 3 m/S 748 mmHg 84%
    05:00 +14°C° 0 mm 3 m/S 748 mmHg 88%
    06:00 +14°C° 0 mm 3 m/S 748 mmHg 92%
    07:00 +16°C° 0 mm 3 m/S 748 mmHg 86%
    08:00 +17°C° 0 mm 3 m/S 749 mmHg 80%
    09:00 +18°C° 0 mm 4 m/S 749 mmHg 74%
    10:00 +19°C° 0 mm 4 m/S 749 mmHg 68%
    11:00 +20°C° 0 mm 4 m/S 749 mmHg 63%
    12:00 +21°C° 0 mm 4 m/S 749 mmHg 58%
    13:00 +21°C° 0 mm 4 m/S 749 mmHg 57%
    14:00 +21°C° 0 mm 4 m/S 749 mmHg 56%
    15:00 +22°C° 0 mm 4 m/S 750 mmHg 55%
    16:00 +21°C° 0 mm 4 m/S 749 mmHg 59%
    17:00 +21°C° 0 mm 4 m/S 749 mmHg 63%
    18:00 +20°C° 0 mm 3 m/S 749 mmHg 66%
    19:00 +19°C° 0 mm 3 m/S 750 mmHg 71%
    20:00 +17°C° 0 mm 3 m/S 750 mmHg 76%
    21:00 +16°C° 0 mm 2 m/S 751 mmHg 80%
    22:00 +14°C° 0 mm 3 m/S 751 mmHg 83%
    23:00 +14°C° 0 mm 3 m/S 751 mmHg 85%

    Morgen, 26 August, Montag

    Zeit Temperatur Niederschläge Wind Luftdruck Luftfeuchtigkeit
    00:00 +13°C° 0 mm 3 m/S 751 mmHg 88%
    01:00 +14°C° 0 mm 2 m/S 751 mmHg 89%
    02:00 +13°C° 0 mm 2 m/S 752 mmHg 90%
    03:00 +12°C° 0 mm 1 m/S 752 mmHg 90%
    04:00 +12°C° 0 mm 1 m/S 752 mmHg 90%
    05:00 +12°C° 0 mm 1 m/S 752 mmHg 90%
    06:00 +12°C° 0 mm 1 m/S 752 mmHg 90%
    07:00 +13°C° 0 mm 1 m/S 752 mmHg 83%
    08:00 +15°C° 0 mm 1 m/S 752 mmHg 76%
    09:00 +16°C° 0 mm 1 m/S 752 mmHg 70%
    10:00 +19°C° 0 mm 1 m/S 752 mmHg 64%
    11:00 +20°C° 0 mm 1 m/S 752 mmHg 59%
    12:00 +21°C° 0 mm 1 m/S 752 mmHg 54%
    13:00 +22°C° 0 mm 1 m/S 752 mmHg 51%
    14:00 +23°C° 0 mm 1 m/S 751 mmHg 48%
    15:00 +21°C° 0 mm 0 m/S 751 mmHg 45%
    16:00 +23°C° 0 mm 1 m/S 751 mmHg 48%
    17:00 +22°C° 0 mm 1 m/S 750 mmHg 51%
    18:00 +22°C° 0 mm 1 m/S 750 mmHg 54%
    19:00 +21°C° 0 mm 1 m/S 749 mmHg 56%
    20:00 +19°C° 0 mm 1 m/S 749 mmHg 59%
    21:00 +18°C° 0 mm 1 m/S 749 mmHg 61%
    22:00 +16°C° 0 mm 1 m/S 749 mmHg 63%
    23:00 +16°C° 0 mm 2 m/S 749 mmHg 65%

    übermorgen, 27 August, Dienstag

    Zeit Temperatur Niederschläge Wind Luftdruck Luftfeuchtigkeit
    00:00 +15°C° 0 mm 2 m/S 749 mmHg 67%
    01:00 +15°C° 0 mm 2 m/S 748 mmHg 68%
    02:00 +14°C° 0 mm 3 m/S 748 mmHg 70%
    03:00 +13°C° 0 mm 3 m/S 747 mmHg 72%
    04:00 +13°C° 0 mm 3 m/S 747 mmHg 74%
    05:00 +13°C° 0 mm 3 m/S 747 mmHg 75%
    06:00 +13°C° 0 mm 3 m/S 746 mmHg 77%
    07:00 +14°C° 0 mm 4 m/S 746 mmHg 75%
    08:00 +17°C° 0 mm 4 m/S 746 mmHg 74%
    09:00 +18°C° 0 mm 4 m/S 745 mmHg 72%
    10:00 +19°C° 0 mm 5 m/S 745 mmHg 69%
    11:00 +21°C° 0 mm 6 m/S 745 mmHg 65%
    12:00 +22°C° 0 mm 6 m/S 744 mmHg 62%
    13:00 +22°C° 0.4 mm 6 m/S 744 mmHg 62%
    14:00 +22°C° 0.4 mm 7 m/S 744 mmHg 62%
    15:00 +22°C° 0.4 mm 7 m/S 743 mmHg 63%
    16:00 +22°C° 0.2 mm 6 m/S 743 mmHg 66%
    17:00 +21°C° 0.2 mm 6 m/S 743 mmHg 69%
    18:00 +20°C° 0.2 mm 5 m/S 742 mmHg 72%
    19:00 +17°C° 0 mm 5 m/S 743 mmHg 74%
    20:00 +17°C° 0 mm 4 m/S 743 mmHg 76%
    21:00 +15°C° 0 mm 4 m/S 743 mmHg 78%
    22:00 +14°C° 0 mm 4 m/S 744 mmHg 79%
    23:00 +13°C° 0 mm 4 m/S 744 mmHg 80%

    28 August, Mittwoch

    Zeit Temperatur Niederschläge Wind Luftdruck Luftfeuchtigkeit
    00:00 +13°C° 0 mm 4 m/S 744 mmHg 81%
    01:00 +12°C° 0 mm 4 m/S 744 mmHg 82%
    02:00 +10°C° 0 mm 5 m/S 744 mmHg 82%
    03:00 +9°C° 0 mm 5 m/S 745 mmHg 83%
    04:00 +9°C° 0 mm 5 m/S 745 mmHg 82%
    05:00 +8°C° 0 mm 5 m/S 745 mmHg 81%
    06:00 +7°C° 0 mm 5 m/S 746 mmHg 79%
    07:00 +8°C° 0 mm 5 m/S 746 mmHg 73%
    08:00 +8°C° 0 mm 6 m/S 746 mmHg 67%
    09:00 +9°C° 0 mm 6 m/S 747 mmHg 61%
    10:00 +10°C° 0 mm 6 m/S 747 mmHg 58%
    11:00 +11°C° 0 mm 6 m/S 747 mmHg 56%
    12:00 +13°C° 0 mm 6 m/S 747 mmHg 53%
    13:00 +13°C° 0 mm 6 m/S 747 mmHg 52%
    14:00 +14°C° 0 mm 7 m/S 746 mmHg 50%
    15:00 +15°C° 0 mm 7 m/S 746 mmHg 49%
    16:00 +14°C° 0 mm 6 m/S 747 mmHg 52%
    17:00 +13°C° 0 mm 6 m/S 747 mmHg 54%
    18:00 +13°C° 0 mm 5 m/S 747 mmHg 57%
    19:00 +10°C° 0 mm 5 m/S 747 mmHg 61%
    20:00 +10°C° 0 mm 4 m/S 747 mmHg 66%
    21:00 +8°C° 0 mm 3 m/S 748 mmHg 70%
    22:00 +8°C° 0 mm 3 m/S 748 mmHg 72%
    23:00 +7°C° 0 mm 3 m/S 748 mmHg 73%

    29 August, Donnerstag

    Zeit Temperatur Niederschläge Wind Luftdruck Luftfeuchtigkeit
    00:00 +6°C° 0 mm 2 m/S 748 mmHg 75%
    01:00 +5°C° 0 mm 3 m/S 748 mmHg 77%
    02:00 +5°C° 0 mm 3 m/S 748 mmHg 79%
    03:00 +4°C° 0 mm 3 m/S 748 mmHg 81%
    04:00 +4°C° 0 mm 3 m/S 749 mmHg 83%
    05:00 +4°C° 0 mm 3 m/S 749 mmHg 84%
    06:00 +4°C° 0 mm 3 m/S 749 mmHg 86%
    07:00 +5°C° 0 mm 4 m/S 749 mmHg 80%
    08:00 +7°C° 0 mm 5 m/S 749 mmHg 73%
    09:00 +8°C° 0 mm 5 m/S 749 mmHg 67%
    10:00 +9°C° 0 mm 5 m/S 749 mmHg 64%
    11:00 +10°C° 0 mm 5 m/S 749 mmHg 60%
    12:00 +13°C° 0 mm 5 m/S 749 mmHg 57%
    13:00 +13°C° 0 mm 5 m/S 749 mmHg 56%
    14:00 +14°C° 0 mm 5 m/S 749 mmHg 54%
    15:00 +14°C° 0 mm 5 m/S 749 mmHg 53%
    16:00 +14°C° 0 mm 5 m/S 749 mmHg 55%
    17:00 +14°C° 0 mm 4 m/S 749 mmHg 58%
    18:00 +13°C° 0 mm 4 m/S 749 mmHg 60%
    19:00 +12°C° 0 mm 4 m/S 749 mmHg 65%
    20:00 +10°C° 0 mm 3 m/S 749 mmHg 70%
    21:00 +9°C° 0 mm 3 m/S 749 mmHg 75%
    22:00 +8°C° 0 mm 3 m/S 749 mmHg 77%
    23:00 +8°C° 0 mm 3 m/S 749 mmHg 78%

    30 August, Freitag

    Zeit Temperatur Niederschläge Wind Luftdruck Luftfeuchtigkeit
    00:00 +7°C° 0 mm 2 m/S 749 mmHg 79%
    01:00 +7°C° 0 mm 2 m/S 749 mmHg 81%
    02:00 +6°C° 0 mm 2 m/S 749 mmHg 82%
    03:00 +6°C° 0 mm 2 m/S 749 mmHg 83%
    04:00 +6°C° 0 mm 2 m/S 749 mmHg 84%
    05:00 +5°C° 0 mm 2 m/S 749 mmHg 85%
    06:00 +5°C° 0 mm 2 m/S 749 mmHg 86%
    07:00 +7°C° 0 mm 3 m/S 749 mmHg 79%
    08:00 +9°C° 0 mm 3 m/S 749 mmHg 72%
    09:00 +11°C° 0 mm 3 m/S 749 mmHg 65%
    10:00 +12°C° 0 mm 3 m/S 749 mmHg 59%
    11:00 +13°C° 0 mm 3 m/S 749 mmHg 53%
    12:00 +16°C° 0 mm 3 m/S 749 mmHg 47%
    13:00 +15°C° 0 mm 4 m/S 749 mmHg 46%
    14:00 +17°C° 0 mm 4 m/S 748 mmHg 45%
    15:00 +18°C° 0 mm 4 m/S 748 mmHg 44%
    16:00 +17°C° 0 mm 4 m/S 747 mmHg 49%
    17:00 +17°C° 0 mm 4 m/S 747 mmHg 54%
    18:00 +16°C° 0 mm 3 m/S 747 mmHg 59%
    19:00 +15°C° 0 mm 4 m/S 746 mmHg 64%
    20:00 +14°C° 0 mm 4 m/S 746 mmHg 69%
    21:00 +13°C° 0 mm 4 m/S 746 mmHg 74%
    22:00 +13°C° 0.1 mm 4 m/S 746 mmHg 80%
    23:00 +13°C° 0.1 mm 4 m/S 746 mmHg 87%
    Mehr zeigen